• In Deutschland
  • Länderverzeichnis
  • Für 7 Tage
  • Wassertemperatur
  • Satellitenkarten
  • Wetterkarte
  • Widgets
  • user-avatar
    Anmelden

    Stündliche Wetter Cloppenburg

    Heute, 22 Oktober, Sonntag

    Zeit Temperatur Niederschläge Wind Luftdruck Luftfeuchtigkeit
    00:00 +9°C° 0 mm 5 m/S 753 mmHg 86%
    01:00 +9°C° 0 mm 5 m/S 753 mmHg 87%
    02:00 +9°C° 0 mm 5 m/S 752 mmHg 86%
    03:00 +9°C° 0 mm 5 m/S 752 mmHg 86%
    04:00 +8°C° 0 mm 5 m/S 752 mmHg 85%
    05:00 +8°C° 0,1 mm 6 m/S 752 mmHg 85%
    06:00 +8°C° 0,1 mm 6 m/S 751 mmHg 86%
    07:00 +7°C° 0,1 mm 6 m/S 751 mmHg 86%
    08:00 +8°C° 0,6 mm 6 m/S 751 mmHg 87%
    09:00 +8°C° 0,6 mm 6 m/S 751 mmHg 88%
    10:00 +8°C° 0,6 mm 6 m/S 751 mmHg 89%
    11:00 +9°C° 0,3 mm 6 m/S 751 mmHg 86%
    12:00 +10°C° 0,3 mm 6 m/S 752 mmHg 84%
    13:00 +11°C° 0,3 mm 6 m/S 752 mmHg 81%
    14:00 +12°C° 0,1 mm 5 m/S 752 mmHg 80%
    15:00 +12°C° 0,1 mm 5 m/S 752 mmHg 79%
    16:00 +12°C° 0,1 mm 5 m/S 752 mmHg 79%
    17:00 +10°C° 0 mm 5 m/S 753 mmHg 82%
    18:00 +9°C° 0 mm 5 m/S 753 mmHg 85%
    19:00 +8°C° 0 mm 4 m/S 753 mmHg 88%
    20:00 +7°C° 0 mm 5 m/S 754 mmHg 89%
    21:00 +7°C° 0 mm 5 m/S 754 mmHg 90%
    22:00 +7°C° 0 mm 5 m/S 754 mmHg 91%
    23:00 +7°C° 0,1 mm 5 m/S 754 mmHg 91%

    Morgen, 23 Oktober, Montag

    Zeit Temperatur Niederschläge Wind Luftdruck Luftfeuchtigkeit
    00:00 +8°C° 0,1 mm 5 m/S 754 mmHg 92%
    01:00 +8°C° 0,1 mm 4 m/S 754 mmHg 92%
    02:00 +9°C° 0,2 mm 5 m/S 754 mmHg 92%
    03:00 +9°C° 0,2 mm 5 m/S 754 mmHg 92%
    04:00 +9°C° 0,2 mm 5 m/S 754 mmHg 91%
    05:00 +9°C° 0,7 mm 5 m/S 754 mmHg 91%
    06:00 +9°C° 0,7 mm 6 m/S 755 mmHg 90%
    07:00 +9°C° 0,7 mm 6 m/S 755 mmHg 89%
    08:00 +9°C° 0,3 mm 7 m/S 755 mmHg 89%
    09:00 +10°C° 0,3 mm 7 m/S 755 mmHg 88%
    10:00 +10°C° 0,3 mm 7 m/S 756 mmHg 87%
    11:00 +11°C° 0,2 mm 7 m/S 756 mmHg 87%
    12:00 +11°C° 0,2 mm 7 m/S 756 mmHg 87%
    13:00 +11°C° 0,2 mm 7 m/S 757 mmHg 87%
    14:00 +13°C° 0,1 mm 6 m/S 757 mmHg 87%
    15:00 +13°C° 0,1 mm 6 m/S 758 mmHg 87%
    16:00 +13°C° 0,1 mm 6 m/S 758 mmHg 87%
    17:00 +12°C° 0 mm 5 m/S 759 mmHg 89%
    18:00 +12°C° 0 mm 4 m/S 759 mmHg 91%
    19:00 +11°C° 0 mm 4 m/S 760 mmHg 93%
    20:00 +10°C° 0 mm 3 m/S 760 mmHg 93%
    21:00 +10°C° 0 mm 3 m/S 760 mmHg 94%
    22:00 +9°C° 0 mm 2 m/S 761 mmHg 95%
    23:00 +9°C° 0 mm 2 m/S 761 mmHg 96%

    übermorgen, 24 Oktober, Dienstag

    Zeit Temperatur Niederschläge Wind Luftdruck Luftfeuchtigkeit
    00:00 +9°C° 0 mm 2 m/S 761 mmHg 96%
    01:00 +9°C° 0 mm 2 m/S 761 mmHg 96%
    02:00 +9°C° 0 mm 2 m/S 761 mmHg 96%
    03:00 +9°C° 0 mm 2 m/S 761 mmHg 96%
    04:00 +9°C° 0 mm 2 m/S 761 mmHg 96%
    05:00 +10°C° 0 mm 2 m/S 761 mmHg 97%
    06:00 +10°C° 0 mm 3 m/S 761 mmHg 97%
    07:00 +11°C° 0 mm 3 m/S 761 mmHg 97%
    08:00 +11°C° 0,1 mm 3 m/S 761 mmHg 96%
    09:00 +12°C° 0,1 mm 3 m/S 761 mmHg 95%
    10:00 +12°C° 0,1 mm 4 m/S 761 mmHg 94%
    11:00 +13°C° 0 mm 4 m/S 761 mmHg 93%
    12:00 +14°C° 0 mm 4 m/S 761 mmHg 91%
    13:00 +14°C° 0 mm 4 m/S 761 mmHg 90%
    14:00 +14°C° 0,1 mm 4 m/S 761 mmHg 91%
    15:00 +14°C° 0,1 mm 4 m/S 760 mmHg 92%
    16:00 +14°C° 0,1 mm 5 m/S 760 mmHg 93%
    17:00 +14°C° 0,3 mm 5 m/S 760 mmHg 93%
    18:00 +14°C° 0,3 mm 5 m/S 760 mmHg 94%
    19:00 +15°C° 0,3 mm 5 m/S 760 mmHg 95%
    20:00 +15°C° 0,1 mm 5 m/S 760 mmHg 94%
    21:00 +15°C° 0,1 mm 6 m/S 760 mmHg 94%
    22:00 +15°C° 0,1 mm 6 m/S 760 mmHg 93%
    23:00 +15°C° 0,3 mm 6 m/S 760 mmHg 93%

    25 Oktober, Mittwoch

    Zeit Temperatur Niederschläge Wind Luftdruck Luftfeuchtigkeit
    00:00 +15°C° 0,3 mm 6 m/S 760 mmHg 93%
    01:00 +15°C° 0,3 mm 6 m/S 760 mmHg 93%
    02:00 +15°C° 0 mm 6 m/S 760 mmHg 93%
    03:00 +15°C° 0 mm 5 m/S 760 mmHg 93%
    04:00 +14°C° 0 mm 5 m/S 760 mmHg 93%
    05:00 +14°C° 0 mm 5 m/S 760 mmHg 93%
    06:00 +14°C° 0 mm 5 m/S 760 mmHg 93%
    07:00 +14°C° 0 mm 6 m/S 760 mmHg 93%
    08:00 +14°C° 0 mm 6 m/S 760 mmHg 91%
    09:00 +14°C° 0 mm 7 m/S 760 mmHg 89%
    10:00 +14°C° 0 mm 7 m/S 760 mmHg 88%
    11:00 +14°C° 0 mm 7 m/S 760 mmHg 85%
    12:00 +15°C° 0 mm 7 m/S 760 mmHg 82%
    13:00 +15°C° 0 mm 7 m/S 760 mmHg 79%
    14:00 +15°C° 0,1 mm 7 m/S 760 mmHg 81%
    15:00 +15°C° 0,1 mm 6 m/S 760 mmHg 83%
    16:00 +15°C° 0,1 mm 6 m/S 760 mmHg 85%
    17:00 +14°C° 0 mm 5 m/S 761 mmHg 87%
    18:00 +14°C° 0 mm 5 m/S 761 mmHg 89%
    19:00 +14°C° 0 mm 4 m/S 762 mmHg 92%
    20:00 +13°C° 0 mm 4 m/S 762 mmHg 93%
    21:00 +12°C° 0 mm 3 m/S 763 mmHg 94%
    22:00 +12°C° 0 mm 3 m/S 763 mmHg 95%
    23:00 +11°C° 0 mm 3 m/S 763 mmHg 95%

    26 Oktober, Donnerstag

    Zeit Temperatur Niederschläge Wind Luftdruck Luftfeuchtigkeit
    00:00 +11°C° 0 mm 3 m/S 764 mmHg 95%
    01:00 +10°C° 0 mm 3 m/S 764 mmHg 95%
    02:00 +10°C° 0 mm 3 m/S 764 mmHg 95%
    03:00 +10°C° 0 mm 3 m/S 764 mmHg 95%
    04:00 +10°C° 0 mm 3 m/S 764 mmHg 95%
    05:00 +10°C° 0 mm 3 m/S 764 mmHg 95%
    06:00 +10°C° 0 mm 3 m/S 764 mmHg 95%
    07:00 +10°C° 0 mm 3 m/S 764 mmHg 95%
    08:00 +11°C° 0 mm 3 m/S 764 mmHg 92%
    09:00 +12°C° 0 mm 4 m/S 764 mmHg 89%
    10:00 +13°C° 0 mm 4 m/S 764 mmHg 86%
    11:00 +14°C° 0 mm 4 m/S 764 mmHg 82%
    12:00 +15°C° 0 mm 5 m/S 764 mmHg 78%
    13:00 +15°C° 0 mm 5 m/S 764 mmHg 73%
    14:00 +15°C° 0 mm 4 m/S 764 mmHg 75%
    15:00 +15°C° 0 mm 4 m/S 764 mmHg 77%
    16:00 +14°C° 0 mm 3 m/S 763 mmHg 79%
    17:00 +13°C° 0 mm 3 m/S 763 mmHg 83%
    18:00 +12°C° 0 mm 3 m/S 763 mmHg 86%
    19:00 +12°C° 0 mm 2 m/S 763 mmHg 90%
    20:00 +12°C° 0 mm 2 m/S 763 mmHg 91%
    21:00 +11°C° 0 mm 3 m/S 763 mmHg 92%
    22:00 +10°C° 0 mm 3 m/S 762 mmHg 94%
    23:00 +10°C° 0 mm 2 m/S 762 mmHg 93%

    27 Oktober, Freitag

    Zeit Temperatur Niederschläge Wind Luftdruck Luftfeuchtigkeit
    00:00 +10°C° 0 mm 2 m/S 762 mmHg 93%
    01:00 +12°C° 0 mm 2 m/S 761 mmHg 92%
    02:00 +12°C° 0 mm 2 m/S 760 mmHg 93%
    03:00 +12°C° 0 mm 2 m/S 760 mmHg 94%
    04:00 +12°C° 0 mm 2 m/S 759 mmHg 94%
    05:00 +11°C° 0,2 mm 3 m/S 758 mmHg 94%
    06:00 +11°C° 0,2 mm 3 m/S 757 mmHg 94%
    07:00 +12°C° 0,2 mm 3 m/S 757 mmHg 94%
    08:00 +12°C° 0,2 mm 4 m/S 756 mmHg 93%
    09:00 +12°C° 0,2 mm 5 m/S 756 mmHg 91%
    10:00 +13°C° 0,2 mm 6 m/S 755 mmHg 89%
    11:00 +11°C° 1,1 mm 7 m/S 755 mmHg 89%
    12:00 +11°C° 1,1 mm 7 m/S 754 mmHg 90%
    13:00 +10°C° 1,1 mm 8 m/S 754 mmHg 90%
    14:00 +10°C° 1,3 mm 7 m/S 754 mmHg 89%
    15:00 +9°C° 1,3 mm 6 m/S 754 mmHg 88%
    16:00 +9°C° 1,3 mm 5 m/S 755 mmHg 87%
    17:00 +9°C° 0 mm 5 m/S 755 mmHg 88%
    18:00 +8°C° 0 mm 5 m/S 756 mmHg 89%
    19:00 +8°C° 0 mm 5 m/S 757 mmHg 89%
    20:00 +8°C° 0 mm 4 m/S 757 mmHg 90%
    21:00 +7°C° 0 mm 4 m/S 757 mmHg 91%
    22:00 +7°C° 0 mm 4 m/S 757 mmHg 91%
    23:00 +7°C° 0 mm 4 m/S 757 mmHg 91%
    Mehr zeigen